SCP
0 0 0 0 0 0 0 0 0 0 0 0 0 0 0 0 0 0 0 -0 0 0
0 0 0 0 0 0 0 0 0 0 0 0 0 0 0 0 0 0 0 -0 0 0
0 0 0 0 0 0 0 0 0 0 0 0 0 0 0 0 0 0 -0 -0 0 0
0 0 0 0 0 0 0 0 0 0 0 0 0 0 0 0 0 -0 -0 0 -0 -0
0 0 0 0 0 0 0 0 0 0 0 0 0 0 0 0 -0 0 -0 0 -0 0
0 0 0 0 0 0 0 0 0 0 0 0 0 0 0 0 0 -0 -0 -0 -0 0
0 0 0 0 0 0 0 0 0 0 0 0 0 0 0 0 0 0 0 0 0 -0
0 0 0 0 0 0 0 0 0 0 0 0 0 0 0 0 0 0 0 0 -0 -0
0 0 0 0 0 0 0 0 0 0 0 0 0 0 0 0 0 0 0 0 0 0
0 0 0 0 0 0 0 0 0 0 0 0 0 0 0 0 0 0 0 0 0 0
0 0 0 0 0 0 0 0 0 0 0 0 0 0 0 0 0 0 0 0 0 -0
0 0 0 0 0 0 0 0 0 0 0 0 0 0 0 -0 0 -0 -0 -0 0 -0
0 0 0 0 0 0 0 0 0 0 0 0 0 0 -0 -0 0 0 0 -0 -0 -0
0 0 0 0 0 0 0 0 0 0 0 0 0 -0 -0 -0 -0 -0 0 0 0 0
Wind_Speed_500mb
23 20 22 30 37 43 39 43 57 65 64 64 55 47 45 46 41 37 40 42 37 34
18 25 31 29 24 39 49 54 54 61 63 60 58 53 43 42 43 43 39 34 30 32
24 31 15 27 36 40 46 57 60 62 62 60 55 51 48 41 35 40 39 40 36 30
31 15 25 34 37 42 58 55 51 56 57 54 47 41 40 30 27 31 31 30 30 32
12 23 32 37 37 48 50 44 45 52 50 43 38 35 27 23 20 26 26 29 36 38
16 27 35 34 40 44 36 39 41 44 42 37 34 33 27 21 23 27 31 36 39 42
23 30 32 34 41 34 31 34 42 43 40 32 31 26 26 25 23 27 30 30 32 33
26 26 29 36 34 33 26 32 37 36 34 30 28 28 29 29 30 30 23 18 20 26
21 29 27 37 32 27 25 28 32 35 35 34 29 25 25 26 25 21 16 12 6 7
25 30 27 35 31 31 29 31 33 34 37 36 37 33 28 21 17 11 10 7 5 2
28 32 31 33 30 32 31 33 36 38 39 40 37 36 24 13 12 8 10 9 8 6
29 33 33 34 31 32 33 30 34 37 40 44 42 30 10 4 4 5 2 3 5 6
31 36 35 35 35 32 34 32 35 39 41 45 36 13 10 8 7 9 11 6 4 2
39 40 37 36 39 34 33 31 37 42 42 41 26 7 9 13 12 10 7 10 6 5
Wind_Direction_500mb
284 282 299 310 311 316 322 328 330 323 313 311 309 308 295 285 288 288 280 275 274 277
284 305 310 316 332 339 339 329 314 310 310 307 302 304 298 287 277 281 279 281 267 275
301 317 335 339 340 333 327 321 323 325 324 318 310 306 299 286 274 278 275 276 276 268
319 337 348 334 324 330 329 327 331 327 324 324 323 316 313 289 273 284 283 265 265 269
314 342 327 320 324 329 328 333 334 330 323 323 328 332 326 305 278 287 281 275 272 271
319 321 322 322 324 324 329 335 333 335 335 333 335 337 327 304 291 277 280 280 277 277
317 316 324 325 325 328 327 335 334 334 332 344 0 0 344 329 312 297 295 286 276 271
316 320 329 331 329 329 329 329 334 338 330 332 342 354 342 338 325 315 308 290 283 281
307 326 324 334 330 336 339 344 342 345 343 342 333 334 343 330 320 315 303 299 316 90
301 312 311 328 322 326 326 333 337 338 341 338 331 327 337 338 330 307 277 297 283 150
298 303 299 317 321 323 318 327 331 333 336 338 337 324 327 342 331 316 286 262 226 229
289 300 292 305 314 319 312 324 330 336 334 334 334 319 307 80 2 322 292 170 202 244
289 291 293 300 308 307 308 317 321 328 331 332 330 307 109 118 94 119 99 41 357 256
287 286 294 291 307 303 299 309 321 320 328 334 324 191 142 164 152 156 103 70 41 86
Wind_Speed_850mb
23 20 22 30 37 43 39 43 57 65 64 64 55 47 45 46 41 37 40 42 37 34
18 25 31 29 24 39 49 54 54 61 63 60 58 53 43 42 43 43 39 34 30 32
24 31 15 27 36 40 46 57 60 62 62 60 55 51 48 41 35 40 39 40 36 30
31 15 25 34 37 42 58 55 51 56 57 54 47 41 40 30 27 31 31 30 30 32
12 23 32 37 37 48 50 44 45 52 50 43 38 35 27 23 20 26 26 29 36 38
16 27 35 34 40 44 36 39 41 44 42 37 34 33 27 21 23 27 31 36 39 42
23 30 32 34 41 34 31 34 42 43 40 32 31 26 26 25 23 27 30 30 32 33
26 26 29 36 34 33 26 32 37 36 34 30 28 28 29 29 30 30 23 18 20 26
21 29 27 37 32 27 25 28 32 35 35 34 29 25 25 26 25 21 16 12 6 7
25 30 27 35 31 31 29 31 33 34 37 36 37 33 28 21 17 11 10 7 5 2
28 32 31 33 30 32 31 33 36 38 39 40 37 36 24 13 12 8 10 9 8 6
29 33 33 34 31 32 33 30 34 37 40 44 42 30 10 4 4 5 2 3 5 6
31 36 35 35 35 32 34 32 35 39 41 45 36 13 10 8 7 9 11 6 4 2
39 40 37 36 39 34 33 31 37 42 42 41 26 7 9 13 12 10 7 10 6 5
Wind_Direction_850mb
284 282 299 310 311 316 322 328 330 323 313 311 309 308 295 285 288 288 280 275 274 277
284 305 310 316 332 339 339 329 314 310 310 307 302 304 298 287 277 281 279 281 267 275
301 317 335 339 340 333 327 321 323 325 324 318 310 306 299 286 274 278 275 276 276 268
319 337 348 334 324 330 329 327 331 327 324 324 323 316 313 289 273 284 283 265 265 269
314 342 327 320 324 329 328 333 334 330 323 323 328 332 326 305 278 287 281 275 272 271
319 321 322 322 324 324 329 335 333 335 335 333 335 337 327 304 291 277 280 280 277 277
317 316 324 325 325 328 327 335 334 334 332 344 0 0 344 329 312 297 295 286 276 271
316 320 329 331 329 329 329 329 334 338 330 332 342 354 342 338 325 315 308 290 283 281
307 326 324 334 330 336 339 344 342 345 343 342 333 334 343 330 320 315 303 299 316 90
301 312 311 328 322 326 326 333 337 338 341 338 331 327 337 338 330 307 277 297 283 150
298 303 299 317 321 323 318 327 331 333 336 338 337 324 327 342 331 316 286 262 226 229
289 300 292 305 314 319 312 324 330 336 334 334 334 319 307 80 2 322 292 170 202 244
289 291 293 300 308 307 308 317 321 328 331 332 330 307 109 118 94 119 99 41 357 256
287 286 294 291 307 303 299 309 321 320 328 334 324 191 142 164 152 156 103 70 41 86